FW4433 Weather Reports


time (UTC)temp
F
wind
direction
speed
knots
gust
knots
rain 1hr
in
rain 24hr
in
rain mn
in
humidity
%
barometer
mb
20260509053601 71 160 0.0 0.0 0.00 0.11 0.00 61 1010.2
20260509053106 71 160 0.0 0.0 0.00 0.11 0.00 61 1010.1
20260509052559 71 160 0.0 0.9 0.00 0.11 0.00 60 1009.9
20260509052058 71 352 0.0 0.9 0.00 0.11 0.00 61 1010.2
20260509051603 71 343 0.0 1.7 0.00 0.11 0.00 61 1010.9
20260509051057 71 344 0.0 1.7 0.00 0.11 0.11 61 1011.0
20260509050554 71 333 0.9 1.7 0.00 0.11 0.11 61 1010.7
20260509050055 71 245 0.0 0.9 0.00 0.11 0.11 61 1010.2
20260509045053 71 245 0.0 0.9 0.00 0.11 0.11 61 1009.2
20260509044551 71 180 0.0 0.9 0.00 0.11 0.11 60 1009.2
20260509044052 72 230 0.0 1.7 0.00 0.11 0.11 60 1009.2
20260509043550 72 141 0.0 1.7 0.00 0.11 0.11 60 1009.1
20260509043058 72 134 0.0 3.5 0.00 0.11 0.11 60 1008.8
20260509042650 72 230 0.0 3.5 0.00 0.11 0.11 60 1009.1
20260509042049 72 158 0.0 7.0 0.00 0.11 0.11 59 1009.2
20260509041549 72 150 2.6 7.0 0.00 0.11 0.11 59 1009.3
20260509041048 72 337 0.0 5.2 0.00 0.11 0.11 59 1009.2
20260509040548 72 215 0.0 6.1 0.00 0.11 0.11 59 1009.0
20260509040048 72 172 0.0 3.5 0.00 0.11 0.11 59 1009.2
20260509035046 73 158 0.9 2.6 0.00 0.11 0.11 59 1009.5
20260509034544 73 180 0.0 0.9 0.00 0.11 0.11 59 1010.0
20260509034044 73 194 0.0 0.9 0.00 0.11 0.11 59 1010.4
20260509033543 73 194 0.0 0.9 0.00 0.11 0.11 59 1010.3
20260509033042 73 188 0.0 0.9 0.00 0.11 0.11 59 1010.1
20260509032543 73 192 0.0 1.7 0.00 0.11 0.11 58 1009.8
20260509032041 73 143 0.0 1.7 0.00 0.11 0.11 58 1009.4
20260509031556 73 207 0.0 1.7 0.00 0.11 0.11 59 1009.4
20260509031040 73 158 0.0 1.7 0.00 0.11 0.11 59 1009.6
20260509030539 73 165 0.0 0.9 0.00 0.11 0.11 59 1009.6
20260509030040 73 174 0.0 1.7 0.00 0.11 0.11 59 1009.7
20260509025038 73 72 0.0 1.7 0.00 0.11 0.11 59 1009.3
20260509024539 73 151 0.0 3.5 0.00 0.11 0.11 59 1009.1
20260509024039 73 154 0.9 3.5 0.00 0.11 0.11 59 1008.9
20260509023536 73 262 0.0 4.3 0.00 0.11 0.11 59 1008.7
20260509023038 73 154 0.9 4.3 0.00 0.11 0.11 58 1008.6
20260509022535 73 136 0.9 4.3 0.00 0.11 0.11 58 1008.4
20260509022036 73 129 0.9 7.0 0.00 0.11 0.11 58 1008.5
20260509021535 73 166 1.7 6.1 0.00 0.11 0.11 58 1008.2
20260509021032 73 167 0.9 5.2 0.00 0.11 0.11 58 1008.2
20260509020532 73 130 0.0 2.6 0.00 0.11 0.11 58 1008.3
20260509020030 73 121 0.9 3.5 0.00 0.11 0.11 58 1008.3
20260509015032 73 75 0.0 2.6 0.00 0.11 0.11 58 1008.3
20260509014529 73 127 0.0 2.6 0.00 0.11 0.11 57 1008.3
20260509014029 73 186 0.0 4.3 0.00 0.11 0.11 57 1008.2
20260509013528 73 186 0.0 4.3 0.00 0.11 0.11 57 1008.2
20260509013036 73 160 0.0 0.9 0.00 0.11 0.11 57 1008.2
20260509012528 73 208 0.0 0.9 0.00 0.11 0.11 57 1008.2
20260509012028 73 165 0.0 3.5 0.00 0.11 0.11 57 1008.2
20260509011527 73 155 0.0 3.5 0.00 0.11 0.11 57 1008.2
20260509011029 74 153 0.9 4.3 0.00 0.11 0.11 56 1008.2
20260509010525 74 108 0.9 4.3 0.00 0.11 0.11 56 1008.1
20260509010025 74 220 0.9 5.2 0.00 0.11 0.11 56 1008.1
20260509005022 74 148 0.9 4.3 0.00 0.11 0.11 55 1007.9
20260509004529 74 122 0.0 5.2 0.00 0.11 0.11 55 1007.7
20260509004022 74 173 0.0 6.1 0.00 0.11 0.11 55 1007.7
20260509003522 74 136 1.7 5.2 0.00 0.11 0.11 55 1007.5
20260509003022 74 115 0.9 5.2 0.00 0.11 0.11 55 1007.3
20260509002519 74 143 0.9 5.2 0.00 0.11 0.11 55 1007.5
20260509002026 74 172 1.7 4.3 0.00 0.11 0.11 54 1007.5
20260509001518 75 167 0.0 3.5 0.00 0.11 0.11 55 1007.5
20260509001018 75 141 0.0 3.5 0.00 0.11 0.11 54 1007.5
20260509000516 75 126 0.0 4.3 0.00 0.11 0.11 54 1007.5
20260509000016 75 99 0.9 6.1 0.00 0.11 0.11 53 1007.6
20260508235016 75 179 0.9 5.2 0.00 0.11 0.11 54 1007.9
20260508234515 75 138 0.0 5.2 0.00 0.11 0.11 54 1008.0
20260508234013 75 187 0.9 4.3 0.00 0.11 0.11 54 1008.0
20260508233513 75 245 0.9 5.2 0.00 0.11 0.11 52 1008.0
20260508233012 75 191 0.9 5.2 0.00 0.11 0.11 52 1008.0
20260508232511 75 146 0.9 5.2 0.00 0.11 0.11 52 1008.1
20260508232010 76 151 0.0 4.3 0.00 0.11 0.11 52 1008.1
20260508231509 76 151 0.0 4.3 0.00 0.11 0.11 52 1008.1
20260508231008 76 208 0.9 4.3 0.00 0.11 0.11 52 1008.1
20260508230512 76 143 0.9 4.3 0.00 0.11 0.11 52 1008.2
20260508230006 76 243 0.0 6.1 0.00 0.11 0.11 52 1008.2
20260508225006 77 220 0.0 6.1 0.00 0.11 0.11 51 1008.1
20260508224507 77 115 0.0 2.6 0.00 0.11 0.11 51 1008.1
20260508224010 77 86 0.0 4.3 0.00 0.11 0.11 52 1008.1
20260508223505 77 161 0.9 5.2 0.00 0.11 0.11 51 1008.1
20260508223014 77 111 1.7 5.2 0.00 0.11 0.11 50 1008.1
20260508222506 77 251 0.9 5.2 0.00 0.11 0.11 50 1008.1
20260508222003 77 155 1.7 5.2 0.00 0.11 0.11 50 1008.0
20260508221503 78 314 1.7 5.2 0.00 0.11 0.11 50 1007.9
20260508221003 78 240 0.0 2.6 0.00 0.11 0.11 49 1008.0
20260508220501 78 217 0.0 2.6 0.00 0.11 0.11 50 1007.9
20260508220004 78 111 1.7 5.2 0.00 0.11 0.11 50 1007.9
20260508215002 78 142 0.9 3.5 0.00 0.11 0.11 50 1007.8
20260508214502 78 121 0.9 6.1 0.00 0.11 0.11 50 1007.9
20260508214101 78 145 1.7 6.1 0.00 0.11 0.11 49 1008.0
20260508213603 77 112 0.9 6.1 0.00 0.11 0.11 50 1007.9
20260508213117 77 160 2.6 6.1 0.00 0.11 0.11 50 1007.9
20260508212603 77 159 0.9 7.0 0.00 0.11 0.11 50 1008.0
20260508212057 77 163 0.9 7.0 0.00 0.11 0.11 49 1008.1
20260508211600 77 165 2.6 7.0 0.00 0.11 0.11 49 1008.1
20260508211054 77 160 0.9 5.2 0.00 0.11 0.11 50 1008.3
20260508210555 77 92 0.9 4.3 0.00 0.11 0.11 50 1008.6
20260508210051 75 176 0.9 6.1 0.00 0.11 0.11 51 1008.8
20260508205056 75 146 1.7 6.1 0.00 0.11 0.11 51 1009.3
20260508204614 75 193 1.7 5.2 0.00 0.11 0.11 51 1009.4
20260508204056 76 130 0.9 3.5 0.00 0.11 0.11 50 1009.8
20260508203553 76 152 1.7 3.5 0.00 0.11 0.11 50 1009.8
20260508203057 76 150 0.0 2.6 0.00 0.11 0.11 49 1009.9
20260508202553 77 110 0.0 2.6 0.00 0.11 0.11 49 1009.8
20260508202051 77 141 0.0 3.5 0.00 0.11 0.11 49 1009.9
20260508201606 77 164 0.0 3.5 0.00 0.11 0.11 49 1009.9
20260508201051 77 46 0.0 3.5 0.00 0.11 0.11 48 1009.9
20260508200549 78 141 0.9 3.5 0.00 0.11 0.11 47 1009.9
20260508195043 78 141 0.0 2.6 0.00 0.11 0.11 48 1010.0
20260508194540 78 199 0.9 3.5 0.00 0.11 0.11 47 1010.0
20260508194041 78 42 0.9 4.3 0.00 0.11 0.11 47 1010.0
20260508193538 79 116 0.9 4.3 0.00 0.11 0.11 46 1010.0
20260508193038 79 166 0.0 3.5 0.00 0.11 0.11 45 1010.0
20260508192537 79 212 0.0 2.6 0.00 0.11 0.11 45 1010.0
20260508192037 79 150 0.0 4.3 0.00 0.11 0.11 47 1010.1
20260508191536 79 108 0.9 7.0 0.00 0.11 0.11 46 1010.1
20260508191038 79 167 1.7 6.1 0.00 0.11 0.11 45 1010.2
20260508190535 79 160 0.9 6.1 0.00 0.11 0.11 44 1010.2
20260508190041 79 107 1.7 7.0 0.00 0.11 0.11 45 1010.2
20260508185037 79 117 1.7 6.1 0.00 0.11 0.11 43 1010.2
20260508184537 79 206 0.9 6.1 0.00 0.11 0.11 44 1010.2
20260508184038 79 200 0.0 5.2 0.00 0.11 0.11 44 1010.3
20260508183537 79 152 1.7 5.2 0.00 0.11 0.11 43 1010.4
20260508183036 79 120 0.9 3.5 0.00 0.11 0.11 44 1010.5
20260508182531 78 198 0.0 4.3 0.00 0.11 0.11 45 1010.6
20260508182030 78 178 1.7 6.1 0.00 0.11 0.11 44 1010.7
20260508181544 78 119 1.7 6.1 0.00 0.11 0.11 45 1010.8
20260508181027 77 228 1.7 5.2 0.00 0.11 0.11 46 1011.0
20260508180526 77 195 1.7 5.2 0.00 0.11 0.11 44 1011.1
20260508180026 77 129 1.7 8.7 0.00 0.11 0.11 45 1011.2
20260508175020 77 121 2.6 8.7 0.00 0.11 0.11 44 1011.3
20260508174525 77 150 1.7 7.0 0.00 0.11 0.11 44 1011.3
20260508174018 77 157 0.9 3.5 0.00 0.11 0.11 44 1011.4
20260508173518 77 153 0.9 4.3 0.00 0.11 0.11 45 1011.4
20260508173016 77 204 0.9 4.3 0.00 0.11 0.11 45 1011.4
20260508172515 76 154 0.0 4.3 0.00 0.11 0.11 46 1011.5
20260508172015 76 252 0.9 5.2 0.00 0.11 0.11 46 1011.7
20260508171511 75 157 0.9 5.2 0.00 0.11 0.11 46 1011.9
20260508171009 75 192 0.0 6.1 0.00 0.11 0.11 46 1012.1
20260508170513 75 111 0.9 6.1 0.00 0.11 0.11 46 1012.3
20260508170108 75 160 0.0 6.1 0.00 0.11 0.11 45 1012.4
20260508165007 73 139 0.9 3.5 0.00 0.11 0.11 48 1012.6
20260508164504 72 224 0.0 3.5 0.00 0.11 0.11 49 1012.6
20260508164003 72 195 0.9 3.5 0.00 0.11 0.11 49 1012.7
20260508163603 71 215 0.0 3.5 0.00 0.11 0.11 50 1012.9
20260508163059 71 146 0.9 5.2 0.00 0.11 0.11 49 1013.0
20260508162558 71 263 0.9 5.2 0.00 0.11 0.11 49 1013.1
20260508162057 70 150 0.9 4.3 0.00 0.11 0.11 50 1013.1
20260508161556 70 79 0.9 5.2 0.00 0.11 0.11 50 1013.1
20260508161056 70 175 0.9 5.2 0.00 0.11 0.11 49 1013.2
20260508160556 70 138 0.0 2.6 0.00 0.11 0.11 49 1013.2
20260508160056 70 162 0.0 5.2 0.00 0.11 0.11 50 1013.2
20260508155059 70 162 0.0 5.2 0.00 0.11 0.11 51 1013.3
20260508154559 70 194 0.0 5.2 0.00 0.11 0.11 51 1013.6
20260508154059 69 143 0.0 2.6 0.00 0.11 0.11 51 1013.6
20260508153555 69 174 0.0 5.2 0.00 0.11 0.11 52 1013.7
20260508153059 68 247 0.0 5.2 0.00 0.11 0.11 51 1013.7
20260508152558 68 127 0.0 4.3 0.00 0.11 0.11 51 1013.6
20260508152054 69 129 0.9 4.3 0.00 0.11 0.11 51 1013.6
20260508151553 68 185 0.9 3.5 0.00 0.11 0.11 51 1013.7
20260508151052 68 242 0.0 2.6 0.00 0.11 0.11 53 1013.9
20260508150551 68 97 0.9 2.6 0.00 0.11 0.11 51 1013.7
20260508150050 68 174 0.0 4.3 0.00 0.11 0.11 53 1013.7
20260508145049 68 94 0.0 2.6 0.00 0.11 0.11 53 1013.9
20260508144545 68 139 0.0 3.5 0.00 0.11 0.11 53 1013.6
20260508144043 67 155 0.0 3.5 0.00 0.11 0.11 54 1013.6
20260508143542 67 38 0.0 6.1 0.00 0.11 0.11 55 1013.9
20260508143042 67 219 1.7 6.1 0.00 0.11 0.11 54 1013.9
20260508142541 67 129 1.7 5.2 0.00 0.11 0.11 53 1013.9
20260508142039 66 131 1.7 7.8 0.00 0.11 0.11 54 1014.0
20260508141547 65 154 2.6 7.8 0.00 0.11 0.11 54 1014.0
20260508141036 65 179 0.9 3.5 0.00 0.11 0.11 54 1014.0
20260508140534 64 155 0.0 4.3 0.00 0.11 0.11 55 1014.2
20260508140034 64 184 0.0 4.3 0.00 0.11 0.11 54 1014.2
20260508135034 64 206 0.0 2.6 0.00 0.11 0.11 54 1014.0
20260508134533 64 198 0.0 1.7 0.01 0.11 0.11 55 1014.1
20260508134032 64 201 0.0 2.6 0.04 0.11 0.11 54 1014.0
20260508133531 64 208 0.0 2.6 0.05 0.11 0.11 54 1014.0
20260508133029 63 150 0.0 2.6 0.05 0.11 0.11 55 1013.9
20260508132527 62 173 0.0 1.7 0.05 0.11 0.11 55 1014.1
20260508132027 62 181 0.0 1.7 0.05 0.11 0.11 56 1014.2
20260508131526 62 108 0.0 2.6 0.05 0.11 0.11 55 1014.1
20260508131025 61 156 0.0 2.6 0.05 0.11 0.11 55 1014.1
20260508130527 61 153 0.9 3.5 0.05 0.11 0.11 55 1014.0
20260508130025 61 149 0.9 3.5 0.05 0.11 0.11 57 1014.0
20260508125026 62 105 0.0 0.9 0.05 0.11 0.11 58 1014.5
20260508124525 62 174 0.0 2.6 0.05 0.11 0.11 56 1014.3
20260508124025 62 146 0.0 2.6 0.02 0.08 0.08 55 1014.1
20260508123524 62 131 0.0 0.9 0.00 0.06 0.06 54 1014.4
20260508123023 62 181 0.0 0.9 0.00 0.06 0.06 54 1014.6
20260508122523 62 155 0.0 1.7 0.00 0.06 0.06 54 1014.5
20260508122022 62 117 0.0 1.7 0.00 0.06 0.06 54 1014.3
20260508121522 62 148 0.0 1.7 0.00 0.06 0.06 54 1014.4
20260508121022 62 121 0.0 4.3 0.00 0.06 0.06 55 1014.3
20260508120522 62 58 0.9 4.3 0.00 0.06 0.06 54 1014.2
20260508120021 62 123 0.0 3.5 0.00 0.06 0.06 54 1014.1
20260508115020 62 210 0.0 1.7 0.00 0.06 0.06 54 1014.6
20260508114522 61 214 0.0 2.6 0.00 0.06 0.06 54 1014.5
20260508114019 61 147 0.0 1.7 0.00 0.06 0.06 56 1014.2
20260508113519 61 176 0.0 0.9 0.00 0.06 0.06 59 1014.3
20260508113018 61 193 0.0 0.0 0.00 0.06 0.06 59 1014.3
20260508112517 61 203 0.0 0.0 0.00 0.06 0.06 59 1014.3
20260508112016 61 203 0.0 2.6 0.00 0.06 0.06 58 1014.2
20260508111517 61 201 0.0 2.6 0.00 0.06 0.06 58 1013.7
20260508111017 61 173 0.9 1.7 0.00 0.06 0.06 59 1013.6
20260508110521 61 355 0.0 0.9 0.00 0.06 0.06 59 1014.4
20260508110014 61 355 0.0 2.6 0.00 0.06 0.06 59 1014.6
20260508105013 61 344 0.0 0.9 0.00 0.06 0.06 59 1014.7
20260508104512 61 344 0.0 0.9 0.00 0.06 0.06 58 1014.2
20260508104012 61 344 0.0 0.9 0.00 0.06 0.06 58 1014.4
20260508103511 61 344 0.0 0.9 0.00 0.06 0.06 58 1014.8
20260508103025 61 283 0.0 0.0 0.00 0.06 0.06 57 1014.0
20260508102509 62 283 0.0 0.0 0.00 0.06 0.06 57 1013.4
20260508102012 62 283 0.0 0.0 0.00 0.06 0.06 57 1013.5
20260508101515 62 243 0.0 0.9 0.00 0.06 0.06 56 1013.7
20260508101008 62 106 0.0 3.5 0.00 0.06 0.06 55 1013.3
20260508100507 62 214 0.9 3.5 0.00 0.06 0.06 54 1013.1
20260508100007 61 147 0.0 0.9 0.02 0.06 0.06 55 1013.3
20260508095008 61 142 0.0 0.9 0.02 0.06 0.06 57 1013.2
20260508094506 61 159 0.0 0.0 0.02 0.06 0.06 58 1013.3
20260508094005 61 191 0.0 0.9 0.02 0.06 0.06 59 1013.3
20260508093507 61 231 0.0 0.9 0.03 0.06 0.06 59 1013.3
20260508093005 61 233 0.0 0.9 0.04 0.06 0.06 59 1013.3
20260508092503 61 233 0.0 0.9 0.04 0.06 0.06 59 1013.6
20260508092003 61 233 0.0 0.9 0.04 0.06 0.06 59 1013.2
20260508091501 61 279 0.0 0.0 0.04 0.06 0.06 59 1013.5
20260508091002 61 279 0.0 0.0 0.04 0.06 0.06 59 1013.6
20260508090603 61 279 0.0 0.9 0.06 0.06 0.06 59 1013.8
20260508090127 61 279 0.0 0.9 0.06 0.06 0.06 59 1013.8
20260508085659 61 317 0.0 0.9 0.04 0.04 0.04 59 1014.1
20260508085059 61 317 0.0 0.9 0.04 0.04 0.04 59 1014.2
20260508084609 61 317 0.0 0.9 0.04 0.04 0.04 59 1014.3
20260508084058 62 211 0.0 4.3 0.04 0.04 0.04 58 1014.2
20260508083601 61 190 0.9 5.2 0.03 0.03 0.03 58 1013.3
20260508083117 61 179 2.6 4.3 0.03 0.03 0.03 59 1012.9
20260508082555 62 199 0.0 0.0 0.02 0.02 0.02 59 1014.1
20260508082053 62 200 0.0 0.0 0.02 0.02 0.02 60 1014.1
20260508081552 62 200 0.0 0.0 0.02 0.02 0.02 61 1014.9
20260508081049 63 200 0.0 0.0 0.02 0.02 0.02 61 1014.4
20260508080548 63 200 0.0 0.0 0.01 0.01 0.01 59 1014.3
20260508080050 63 29 0.0 0.0 0.00 0.00 0.00 59 1014.7
20260508075647 63 29 0.0 0.0 0.00 0.00 0.00 59 1015.5
20260508075048 63 29 0.0 0.0 0.00 0.00 0.00 59 1015.7
20260508074552 63 29 0.0 0.0 0.00 0.00 0.00 59 1015.6
20260508074048 63 29 0.0 0.0 0.00 0.00 0.00 59 1015.2
20260508073545 63 30 0.0 0.0 0.00 0.00 0.00 59 1015.2
20260508073047 63 30 0.0 0.0 0.00 0.00 0.00 59 1014.7
20260508072544 63 30 0.0 0.0 0.00 0.00 0.00 59 1014.7
20260508072046 63 30 0.0 0.0 0.00 0.00 0.00 58 1014.6
20260508071543 63 30 0.0 0.0 0.00 0.00 0.00 58 1014.8
20260508071041 63 30 0.0 0.0 0.00 0.00 0.00 58 1014.8
20260508070541 63 30 0.0 0.0 0.00 0.00 0.00 58 1014.9
20260508070043 63 145 0.0 0.0 0.00 0.00 0.00 58 1014.9
20260508065641 63 192 0.0 0.0 0.00 0.00 0.00 57 1014.8
20260508065037 63 192 0.0 0.0 0.00 0.00 0.00 57 1014.8
20260508064548 63 192 0.0 0.0 0.00 0.00 0.00 58 1015.2
20260508064035 63 192 0.0 0.0 0.00 0.00 0.00 57 1015.3
20260508063536 63 192 0.0 0.0 0.00 0.00 0.00 57 1015.4
20260508063034 63 192 0.0 0.0 0.00 0.00 0.00 57 1015.4
20260508062533 63 191 0.0 0.0 0.00 0.00 0.00 56 1015.4
20260508062032 63 192 0.0 0.0 0.00 0.00 0.00 56 1015.3
20260508061535 63 192 0.0 0.0 0.00 0.00 0.00 56 1015.6
20260508061032 63 192 0.0 0.0 0.00 0.00 0.00 56 1015.5
20260508060533 63 191 0.0 0.9 0.00 0.00 0.00 56 1015.3
20260508060031 63 203 0.0 0.0 0.00 0.00 0.00 56 1015.2
20260508055630 63 199 0.0 0.0 0.00 0.00 0.00 57 1015.4
20260508055031 63 199 0.0 0.0 0.00 0.00 0.00 57 1015.5
20260508054531 63 199 0.0 0.0 0.00 0.00 0.00 57 1015.3
20260508054030 63 199 0.0 0.0 0.00 0.00 0.00 57 1015.3